Location: Runcul Mare
(45.7333°N, 22.6333°E)
Time: 22:34:26
(UTC+00:00)

Daily predictions for brighter satellites

Satellite Brightness Start Highest point End
(mag) Time Altitude Azimuth Time Altitude Azimuth Time Altitude Azimuth
ATLAS 2AS CENTAUR R/B 3.8 15:08:56 10° NNW 15:14:35 25° NNE 15:20:01 10° ENE
SL-8 R/B 3.7 15:11:05 10° WNW 15:15:53 80° NNE 15:20:40 10° ESE
Cosmos 1602 4.4 15:15:37 10° N 15:18:59 31° ENE 15:22:20 10° SE
Cosmos 1943 3.6 15:14:14 10° NNW 15:19:32 40° NE 15:24:49 10° SE
Cosmos 1606 4.5 15:18:21 10° SW 15:21:36 30° WNW 15:24:53 10° N
USA 305 2.9 15:19:58 10° NW 15:23:40 49° NNE 15:27:24 10° ESE
SMAP 3.3 15:22:24 10° SE 15:26:52 49° ENE 15:31:23 10° N
Helios 1A 4.4 15:23:50 10° NE 15:26:52 19° E 15:29:53 10° SE
SL-16 R/B 4.3 15:24:09 10° N 15:29:23 29° WNW 15:34:36 10° WSW
Cosmos 1953 Rocket 4.4 15:25:03 10° NNW 15:29:26 57° W 15:33:45 10° S
Cosmos 2297 Rocket 4.0 15:24:55 10° WSW 15:29:34 25° NW 15:34:14 10° N
Cosmos 2344 4.1 15:22:56 10° S 15:30:00 39° ESE 15:36:39 10° NE
Helios 1B rocket 2.4 15:26:06 10° SSE 15:30:02 83° WSW 15:34:00 10° NNW
Cosmos 1500 2.9 15:27:45 10° N 15:31:17 77° E 15:34:48 10° SSE
Aureole 3 Rocket 4.0 15:27:53 10° NNW 15:32:08 45° W 15:35:24 10° SSW
Cosmos 407 Rocket 4.1 15:28:07 10° N 15:32:45 32° ENE 15:37:18 10° ESE
CZ-4B R/B 4.0 15:29:34 10° SE 15:32:57 40° ENE 15:36:24 10° N
Cosmos 2219 3.9 15:30:20 10° SW 15:35:49 54° WNW 15:41:22 10° NNE
Cosmos 405 Rocket 3.8 15:36:31 10° SSW 15:40:10 45° WNW 15:43:54 10° N
Cosmos 2251 Rocket 4.0 15:35:16 10° N 15:40:18 40° ENE 15:45:20 10° SE
ISS -2.9 15:42:28 10° WNW 15:45:44 51° SW 15:49:00 10° SE
Lacrosse 5 2.9 15:44:58 10° S 15:49:16 29° SE 15:52:30 15° ENE
Cosmos 2082 4.1 15:45:21 10° SW 15:50:55 65° WNW 15:56:32 10° NNE
Cosmos 2151 4.2 15:49:01 10° NNW 15:53:06 46° W 15:57:09 10° SSW
Cosmos-2242 3.1 15:49:23 10° S 15:53:37 57° E 15:57:52 10° NNE
COSMO-SKYMED 1 3.6 15:52:17 12° NE 15:55:30 26° E 15:59:09 10° SSE
USA 234 3.5 15:50:14 13° ENE 15:56:00 54° SE 16:02:21 10° SSW
Cosmos 2058 Rocket 4.1 15:51:49 10° SSW 15:56:06 47° WNW 16:00:23 10° N
Lacrosse 4 Rocket 1.4 15:52:52 10° NNW 15:57:12 66° ENE 16:01:25 10° SE
Meteor 1-25 Rocket 4.3 15:54:54 10° N 16:00:28 56° ENE 16:05:56 10° SSE
Cosmos 1023 Rocket 4.4 15:56:48 10° NNW 16:01:59 77° ENE 16:07:04 10° SSE
Cosmos 2026 Rocket 4.4 15:56:49 10° SSE 16:02:35 41° E 16:08:26 10° NNE
Cosmos 1818 3.8 15:58:50 10° SSW 16:04:05 53° ESE 16:08:07 17° NE
Cosmos 2221 3.8 16:01:17 10° SE 16:04:17 20° E 16:04:17 20° E
APEX 2.4 16:01:26 10° SSW 16:04:26 62° ESE 16:05:46 26° NE
Cosmos 1812 2.5 16:05:18 10° S 16:08:58 81° E 16:12:40 10° N
AQUARIUS 4.3 16:07:32 10° S 16:12:00 78° WSW 16:16:29 10° NNW
USA 276 2.0 16:14:34 10° W 16:16:55 45° NNW 16:17:13 42° N
Cosmos 2263 Rocket 3.1 16:11:54 10° SW 16:17:14 47° WNW 16:22:38 10° NNE
Cosmos 1844 Rocket 3.1 16:12:10 10° S 16:17:18 40° ESE 16:20:21 22° NE
Cosmos 1092 Rocket 4.0 16:13:56 10° SSE 16:19:53 56° E 16:25:53 10° NNE
Nadezhda 4 Rocket 4.0 16:13:52 10° S 16:20:01 81° W 16:26:10 10° N
Cosmos 2227 4.2 16:19:47 10° SSW 16:25:33 89° WNW 16:30:34 14° NNE
Cosmos 1420 Rocket 4.4 16:21:11 10° S 16:26:02 40° ESE 16:28:11 27° NE
Cosmos 2227 Rocket 4.4 16:22:18 10° W 16:26:09 18° NW 16:30:00 10° N
USA 307 3.6 16:23:03 10° WNW 16:26:46 46° SW 16:30:22 10° SSE
Cosmos 1766 Rocket 4.0 16:23:15 10° N 16:27:16 35° ENE 16:31:14 10° SE
YAOGAN 1 4.1 16:29:59 19° NNE 16:29:59 19° NNE 16:31:36 10° N
Meteor 1-20 Rocket 4.4 16:23:02 10° NNW 16:28:37 75° W 16:34:16 10° S
ADEOS 3.7 16:24:21 10° SE 16:29:22 50° ENE 16:34:25 10° N
Cosmos 1140 Rocket 3.9 16:24:25 10° NNW 16:29:33 66° WSW 16:34:38 10° S
Cosmos 1933 3.3 16:26:26 10° S 16:30:21 59° E 16:32:19 27° NNE
Meteor 1-5 Rocket 4.4 16:25:53 10° N 16:31:27 51° ENE 16:37:08 10° SSE
Cosmos 1624 Rocket 4.3 16:28:54 10° S 16:33:47 42° ESE 16:35:20 33° ENE
CBERS 1 LM4 rocket 4.3 16:34:52 10° SSE 16:39:41 89° W 16:44:26 10° NNW
Cosmos 1603 3.8 16:34:07 10° NNW 16:39:49 77° WSW 16:45:26 10° SSE
SKYMED 2 3.4 16:40:54 21° NNE 16:43:46 82° ESE 16:48:07 10° SSW
Cosmos 192 4.2 16:42:40 10° SSW 16:47:32 76° ESE 16:49:36 35° NNE
SL-08 R/B 3.1 16:46:51 37° NE 16:48:31 64° ESE 16:53:07 10° S
Meteor 2-17 Rocket 4.4 16:42:55 10° S 16:49:04 89° ESE 16:55:14 10° N
ATLAS CENTAUR R/B 3.8 16:48:55 10° WNW 16:53:41 54° SW 17:02:48 10° SSE
CZ-4B R/B 4.3 16:52:26 10° S 16:57:22 50° W 17:02:11 10° NNW
RESURS DK-1 3.6 16:54:00 10° NNW 16:56:12 28° N 16:56:12 28° N
USA 305 4.2 16:54:57 10° WNW 16:58:26 32° SW 17:00:25 19° S
EO 1 Delta rocket 4.3 16:51:43 10° SSE 16:58:29 71° ENE 17:03:50 10° N
Cosmos 676 Rocket 4.0 16:53:34 10° NNW 16:58:49 60° ENE 16:59:43 52° ESE
Cosmos 1782 3.5 16:57:06 10° SSW 17:00:54 51° WNW 17:03:02 23° NNW
Helios 1A 4.2 16:58:42 12° N 17:02:17 40° WNW 17:06:09 10° SW
ATLAS 2AS CENTAUR R/B 2.5 16:59:50 10° NW 17:06:45 71° NE 17:09:08 42° ESE
CZ-4B DEB 4.1 17:11:06 37° SE 17:13:22 71° ENE 17:18:54 10° N
Cosmos 1241 Rocket 4.3 17:08:11 10° SSW 17:14:33 76° ESE 17:15:56 56° NE
SME Rocket 4.2 17:20:27 10° SSE 17:25:57 84° WSW 17:34:37 10° NNW
Cosmos 2056 Rocket 3.8 17:22:14 10° SSW 17:27:35 68° WNW 17:28:45 53° N
COSMOS 2455 3.2 17:22:24 10° SSW 17:27:02 48° SSE 17:27:02 48° SSE
Timation 2 Rocket 4.1 17:22:52 10° SW 17:28:48 67° WNW 17:30:41 44° N
Cosmos 1844 3.9 17:23:13 10° SW 17:28:57 68° WNW 17:30:24 49° N
Cosmos 1954 Rocket 4.3 17:24:20 10° NNW 17:29:33 66° WSW 17:31:28 38° S
COSMO-SKYMED 1 4.2 17:29:30 20° NNW 17:31:41 32° WNW 17:35:33 10° SW
Lacrosse 5 2.2 17:26:56 10° WSW 17:31:43 61° NW 17:31:43 61° NW
Cosmos 1833 Rocket 4.4 17:31:50 10° NNW 17:33:48 21° N 17:33:48 21° N
USA 234 3.6 17:37:35 48° NNE 17:39:03 58° NNW 17:45:26 10° WSW
Cosmos 1553 Rocket 4.2 17:34:17 10° NNW 17:40:34 67° W 17:46:41 10° S
Cosmos 2221 3.9 17:37:30 10° SW 17:41:02 37° W 17:41:02 37° W
Cosmos 2344 4.1 17:36:59 10° WSW 17:44:08 49° NW 17:47:05 33° NNE
Cosmos 1844 Rocket 4.0 17:56:12 10° WSW 18:01:15 35° NW 18:02:02 33° NW
ATLAS 2AS CENTAUR R/B 4.4 18:51:38 10° WNW 18:56:38 26° WSW 18:56:38 26° WSW
